{"data":{"norad_id":63975,"epoch":"2026-05-25T04:24:46.924416Z","epoch_age_seconds":49395,"freshness":"FRESH","line1":"1 63975U 25099Z   26145.18387644  .00002830  00000+0  11233-3 0  9999","line2":"2 63975  42.9970 100.8774 0000871 219.1066 140.9723 15.27570869 58987","mean_motion":15.27570869,"eccentricity":8.71e-5,"inclination_deg":42.997,"raan_deg":100.8774,"arg_perigee_deg":219.1066,"mean_anomaly_deg":140.9723,"bstar":0.00011233,"rev_number":5898,"period_min":94.267312189756,"perigee_km":482.47882598429,"apogee_km":483.67404936513,"semimajor_km":6861.2134376747,"source":"CELESTRAK","updated_at":"2026-05-25T13:38:20.215988Z"}}